Regional Weather Roundup
Issued by NWS

Home | Current Version | Previous Version | Graphics & Text | Print | Product List | Glossary On
Versions: 1 2 3 4 5 6 7 8 9 10 11 12 13 14 15 16 17 18 19 20 21 22 23 24 25 26 27 28 29 30 31 32 33 34 35 36 37 38 39 40 41 42 43 44 45 46 47 48 49 50
000
ASUS43 KBIS 250802
RWRND

NORTH DAKOTA REGIONAL WEATHER ROUNDUP
NATIONAL WEATHER SERVICE BISMARCK ND
300 AM CDT MON SEP 25 2017

NOTE: "FAIR" INDICATES FEW OR NO CLOUDS BELOW 12,000 FEET WITH NO
SIGNIFICANT WEATHER AND/OR OBSTRUCTIONS TO VISIBILITY.


NDZ001>003-009>011-017-250900-
NORTHWEST NORTH DAKOTA

CITY           SKY/WX    TMP DP  RH WIND       PRES   REMARKS
WILLISTON      CLOUDY    46  44  93 CALM      30.14S
MINOT          CLOUDY    48  44  86 CALM      30.12S
MINOT AFB      CLOUDY    45  43  94 W6        30.10F
$$

NDZ018>021-031>035-040>046-250900-
SOUTHWEST NORTH DAKOTA

CITY           SKY/WX    TMP DP  RH WIND       PRES   REMARKS
BISMARCK       CLOUDY    48  46  93 NW6       30.12S
DICKINSON      CLOUDY    44  41  89 CALM      30.11S
GARRISON         N/A     45  44  97 N7        30.12S
HETTINGER ARPT CLOUDY    44  40  85 CALM      30.14R
$$

NDZ004>008-012>016-024-026-027-054-250900-
NORTHEAST NORTH DAKOTA

CITY           SKY/WX    TMP DP  RH WIND       PRES   REMARKS
GRAND FORKS    CLOUDY    50  48  93 N13       30.04S
GRND FRKS AFB  DRIZZLE   50  50 100 N10       30.06F
DEVILS LAKE    CLOUDY    47  44  90 N9        30.09F
$$

NDZ022-023-025-028>030-036>039-047>053-250900-
SOUTHEAST NORTH DAKOTA

CITY           SKY/WX    TMP DP  RH WIND       PRES   REMARKS
FARGO          CLOUDY    51  50  96 NW9       30.05R
JAMESTOWN      CLOUDY    48  46  93 NW7       30.09R
$$





USA.gov is the U.S. government's official web portal to all federal, state and local government web resources and services.